TimeCST,TemperatureF,Dew PointF,Humidity,Sea Level PressureIn,VisibilityMPH,Wind Direction,Wind SpeedMPH,Gust SpeedMPH,PrecipitationIn,Events,Conditions,WindDirDegrees,DateUTC
12:13 AM,50.0,32.0,50,30.23,10.0,SSE,16.1,25.3,N/A,,Overcast,160,2012-11-18 06:13:00
12:33 AM,50.0,32.0,50,30.22,10.0,SSE,16.1,24.2,N/A,,Overcast,160,2012-11-18 06:33:00
12:53 AM,50.0,30.2,47,30.21,10.0,SSE,17.3,23.0,N/A,,Overcast,160,2012-11-18 06:53:00
1:12 AM,50.0,30.2,47,30.21,10.0,SSE,19.6,26.5,N/A,,Overcast,160,2012-11-18 07:12:00
1:33 AM,50.0,30.2,47,30.20,10.0,SSE,20.7,27.6,N/A,,Overcast,160,2012-11-18 07:33:00
1:53 AM,50.0,30.2,47,30.20,10.0,SSE,19.6,27.6,N/A,,Overcast,160,2012-11-18 07:53:00
2:13 AM,48.2,30.2,50,30.20,10.0,SSE,16.1,26.5,N/A,,Overcast,160,2012-11-18 08:13:00
2:33 AM,48.2,30.2,50,30.20,10.0,SSE,18.4,-,N/A,,Overcast,160,2012-11-18 08:33:00
2:53 AM,48.2,30.2,50,30.20,10.0,SSE,18.4,-,N/A,,Overcast,160,2012-11-18 08:53:00
3:13 AM,46.4,30.2,53,30.19,10.0,SSE,18.4,21.9,N/A,,Overcast,160,2012-11-18 09:13:00
3:33 AM,48.2,30.2,50,30.18,10.0,SSE,17.3,21.9,N/A,,Overcast,150,2012-11-18 09:33:00
4:13 AM,46.4,28.4,50,30.17,10.0,SSE,16.1,20.7,N/A,,Overcast,150,2012-11-18 10:13:00
4:33 AM,46.4,30.2,53,30.17,10.0,SSE,13.8,19.6,N/A,,Overcast,150,2012-11-18 10:33:00
4:53 AM,44.6,30.2,57,30.16,10.0,SE,13.8,20.7,N/A,,Mostly Cloudy,140,2012-11-18 10:53:00
5:13 AM,44.6,30.2,57,30.16,10.0,SE,13.8,-,N/A,,Scattered Clouds,140,2012-11-18 11:13:00
5:33 AM,44.6,30.2,57,30.16,10.0,SSE,11.5,-,N/A,,Clear,150,2012-11-18 11:33:00
5:53 AM,44.6,30.2,57,30.16,10.0,SE,11.5,17.3,N/A,,Clear,140,2012-11-18 11:53:00
6:13 AM,44.6,30.2,57,30.16,10.0,SE,11.5,16.1,N/A,,Clear,140,2012-11-18 12:13:00
6:33 AM,44.6,30.2,57,30.16,10.0,SE,9.2,-,N/A,,Clear,140,2012-11-18 12:33:00
6:53 AM,44.6,30.2,57,30.16,10.0,SE,10.4,-,N/A,,Clear,140,2012-11-18 12:53:00
7:13 AM,42.8,30.2,61,30.15,10.0,SE,11.5,-,N/A,,Clear,140,2012-11-18 13:13:00
7:33 AM,41.0,28.4,61,30.15,10.0,SE,10.4,-,N/A,,Clear,140,2012-11-18 13:33:00
7:53 AM,42.8,30.2,61,30.15,10.0,SE,13.8,-,N/A,,Clear,140,2012-11-18 13:53:00
8:13 AM,44.6,30.2,57,30.15,10.0,SE,12.7,-,N/A,,Clear,140,2012-11-18 14:13:00
8:33 AM,44.6,30.2,57,30.16,10.0,SE,13.8,-,N/A,,Clear,140,2012-11-18 14:33:00
8:53 AM,46.4,30.2,53,30.16,10.0,SE,12.7,18.4,N/A,,Clear,140,2012-11-18 14:53:00
9:12 AM,46.4,30.2,53,30.16,10.0,SSE,13.8,17.3,N/A,,Clear,150,2012-11-18 15:12:00
9:33 AM,50.0,30.2,47,30.16,10.0,SSE,13.8,18.4,N/A,,Clear,150,2012-11-18 15:33:00
9:53 AM,51.8,30.2,44,30.15,10.0,SSE,20.7,25.3,N/A,,Clear,160,2012-11-18 15:53:00
10:13 AM,53.6,32.0,44,30.15,10.0,South,18.4,24.2,N/A,,Clear,170,2012-11-18 16:13:00
10:33 AM,53.6,30.2,41,30.14,10.0,South,15.0,-,N/A,,Clear,170,2012-11-18 16:33:00
10:53 AM,55.4,28.4,36,30.14,10.0,South,23.0,26.5,N/A,,Clear,180,2012-11-18 16:53:00
11:09 AM,55.4,30.2,38,30.14,10.0,South,19.6,27.6,N/A,,Clear,180,2012-11-18 17:09:00
11:33 AM,59.0,30.2,34,30.13,10.0,South,23.0,26.5,N/A,,Unknown,190,2012-11-18 17:33:00
11:53 AM,59.0,30.2,34,30.12,10.0,South,19.6,24.2,N/A,,Clear,180,2012-11-18 17:53:00
12:13 PM,59.0,28.4,31,30.11,10.0,South,23.0,-,N/A,,Clear,190,2012-11-18 18:13:00
12:33 PM,59.0,30.2,34,30.11,10.0,South,19.6,23.0,N/A,,Clear,180,2012-11-18 18:33:00
12:53 PM,59.0,30.2,34,30.10,10.0,South,16.1,23.0,N/A,,Clear,180,2012-11-18 18:53:00
1:13 PM,60.8,30.2,31,30.10,10.0,South,18.4,24.2,N/A,,Clear,180,2012-11-18 19:13:00
1:33 PM,60.8,28.4,29,30.10,10.0,South,17.3,25.3,N/A,,Clear,180,2012-11-18 19:33:00
1:53 PM,59.0,30.2,34,30.10,10.0,South,15.0,25.3,N/A,,Clear,180,2012-11-18 19:53:00
2:13 PM,59.0,28.4,31,30.09,10.0,South,17.3,21.9,N/A,,Clear,180,2012-11-18 20:13:00
2:33 PM,59.0,28.4,31,30.09,10.0,South,18.4,-,N/A,,Clear,180,2012-11-18 20:33:00
2:53 PM,60.8,30.2,31,30.09,10.0,South,17.3,23.0,N/A,,Clear,170,2012-11-18 20:53:00
3:13 PM,60.8,30.2,31,30.08,10.0,South,17.3,24.2,N/A,,Clear,170,2012-11-18 21:13:00
3:33 PM,60.8,30.2,31,30.10,10.0,South,21.9,27.6,N/A,,Clear,180,2012-11-18 21:33:00
3:53 PM,59.0,30.2,34,30.10,10.0,South,17.3,-,N/A,,Clear,170,2012-11-18 21:53:00
4:13 PM,59.0,30.2,34,30.10,10.0,SSE,18.4,21.9,N/A,,Clear,160,2012-11-18 22:13:00
4:33 PM,55.4,30.2,38,30.11,10.0,SSE,15.0,23.0,N/A,,Clear,160,2012-11-18 22:33:00
4:53 PM,55.4,30.2,38,30.11,10.0,SSE,10.4,-,N/A,,Clear,160,2012-11-18 22:53:00
5:13 PM,53.6,30.2,41,30.11,10.0,SSE,11.5,-,N/A,,Clear,150,2012-11-18 23:13:00
5:33 PM,53.6,32.0,44,30.11,10.0,SSE,12.7,-,N/A,,Clear,150,2012-11-18 23:33:00
5:53 PM,53.6,32.0,44,30.11,10.0,SSE,12.7,-,N/A,,Clear,150,2012-11-18 23:53:00
6:13 PM,53.6,32.0,44,30.11,10.0,SSE,15.0,19.6,N/A,,Clear,150,2012-11-19 00:13:00
6:33 PM,53.6,32.0,44,30.11,10.0,SSE,15.0,21.9,N/A,,Clear,150,2012-11-19 00:33:00
6:52 PM,53.6,32.0,44,30.11,10.0,SE,12.7,-,N/A,,Clear,140,2012-11-19 00:52:00
7:13 PM,51.8,32.0,47,30.11,10.0,SE,11.5,-,N/A,,Clear,140,2012-11-19 01:13:00
7:33 PM,51.8,32.0,47,30.11,10.0,SSE,11.5,-,N/A,,Clear,150,2012-11-19 01:33:00
7:53 PM,51.8,32.0,47,30.11,10.0,SE,10.4,-,N/A,,Clear,140,2012-11-19 01:53:00
8:13 PM,50.0,32.0,50,30.11,10.0,SE,9.2,-,N/A,,Clear,140,2012-11-19 02:13:00
8:33 PM,48.2,32.0,54,30.11,10.0,SSE,10.4,-,N/A,,Clear,150,2012-11-19 02:33:00
8:53 PM,51.8,32.0,47,30.11,10.0,SSE,15.0,23.0,N/A,,Clear,160,2012-11-19 02:53:00
9:13 PM,51.8,32.0,47,30.11,10.0,SSE,16.1,21.9,N/A,,Clear,160,2012-11-19 03:13:00
9:33 PM,53.6,32.0,44,30.11,10.0,South,19.6,25.3,N/A,,Clear,170,2012-11-19 03:33:00
9:53 PM,53.6,32.0,44,30.11,10.0,South,17.3,26.5,N/A,,Scattered Clouds,170,2012-11-19 03:53:00
10:13 PM,53.6,32.0,44,30.11,10.0,SSE,19.6,23.0,N/A,,Overcast,160,2012-11-19 04:13:00
10:33 PM,53.6,32.0,44,30.12,10.0,South,18.4,24.2,N/A,,Overcast,170,2012-11-19 04:33:00
11:13 PM,53.6,32.0,44,30.11,10.0,South,18.4,23.0,N/A,,Mostly Cloudy,170,2012-11-19 05:13:00
11:32 PM,53.6,32.0,44,30.11,10.0,SSE,17.3,21.9,N/A,,Mostly Cloudy,160,2012-11-19 05:32:00
11:53 PM,53.6,32.0,44,30.11,10.0,SSE,15.0,-,N/A,,Overcast,160,2012-11-19 05:53:00